Tracking 33747 objects as of 12-Apr-2026
HD Live streaming from Space Station
objects crossing your sky now

STARLINK-36876

Track STARLINK-36876 now!
10-day predictions
STARLINK-36876 is classified as:


NORAD ID: 67902
Int'l Code: 2026-035Z
Perigee: 397.9 km
Apogee: 400.1 km
Inclination: 97.3 °
Period: 92.4 minutes
Semi major axis: 6770 km
RCS: Unknown
Launch date: February 21, 2026
Source: United States (US)
Launch site: AIR FORCE WESTERN TEST RANGE (AFWTR)
Your satellite tracking list
Your tracking list is empty




NASA's NSSDC Master Catalog

Two Line Element Set (TLE):
1 67902U 26035Z   26101.83334491 -.01900994  00000-0 -28159-1 0  9995
2 67902  97.2843  35.9112 0001583  96.0570 251.3763 15.58546219  6216
Source of the keplerian elements: AFSPC